Volver al catálogo

KINEIS-4E

ActivoComunicacionesSSO
NORAD 63300·PAYLOAD·🇫🇷 France

Lanzado Mar 18, 2025 desde Rocket Lab Launch Complex 1

Loading…

Próximos Pases (próximas 24 horas)

TLE

ActualizadoSource: Space-Track

Época: Sep 14, 2026, 14:50 UTC

1 63300U 25056A   26257.61815380  .00001137  00000-0  18749-3 0  9998
2 63300  97.9137  19.0830 0001096 178.0218 182.0994 14.72307529 80285

Sigue KINEIS-4E en tiempo real con AllMySat

Download on the App Store